This is the latest recevied weather packets stored in our database for station/object K1BES. If no packets are shown the sender has not sent any weather packets the latest 1 day(s).
| Time | Temp. | Humidity | Pressure | Rain* | Wind** | Luminosity | Snow |
|---|---|---|---|---|---|---|---|
| 1777984719 | 23.33° C | 80% | 1017.4 hPa | 0 mm | 0.45 m/s, 57° | 144 W/m² | - |
| 1777984416 | 22.78° C | 80% | 1017.2 hPa | 0 mm | 0.89 m/s, 67° | 126 W/m² | - |
| 1777984112 | 22.78° C | 81% | 1017.3 hPa | 0 mm | 0 m/s | 102 W/m² | - |
| 1777983809 | 22.22° C | 83% | 1017.2 hPa | 0 mm | 0 m/s | 89 W/m² | - |
| 1777983506 | 22.22° C | 83% | 1017.2 hPa | 0 mm | 0.89 m/s, 92° | 82 W/m² | - |
| 1777983203 | 21.67° C | 85% | 1017.3 hPa | 0 mm | 0.89 m/s, 79° | 74 W/m² | - |
| 1777982899 | 21.11° C | 87% | 1017.3 hPa | 0 mm | 0 m/s | 53 W/m² | - |
| 1777982595 | 20.56° C | 89% | 1017.2 hPa | 0 mm | 0 m/s | 66 W/m² | - |
| 1777982294 | 20° C | 92% | 1017.1 hPa | 0 mm | 0 m/s | 60 W/m² | - |
| 1777981992 | 20° C | 92% | 1017 hPa | 0 mm | 0 m/s | 42 W/m² | - |
| 1777981689 | 19.44° C | 93% | 1016.8 hPa | 0 mm | 0 m/s | 37 W/m² | - |
| 1777981385 | 19.44° C | 93% | 1016.7 hPa | 0 mm | 0 m/s | 33 W/m² | - |
| 1777981082 | 18.89° C | 93% | 1016.9 hPa | 0 mm | 0.45 m/s, 73° | 30 W/m² | - |
| 1777980778 | 18.89° C | 94% | 1016.7 hPa | 0 mm | 0.45 m/s, 43° | 26 W/m² | - |
| 1777980474 | 18.89° C | 94% | 1016.6 hPa | 0 mm | 0 m/s | 25 W/m² | - |
| 1777980172 | 18.89° C | 94% | 1016.5 hPa | 0 mm | 0 m/s | 22 W/m² | - |
| 1777979872 | 18.89° C | 94% | 1016.7 hPa | 0 mm | 0 m/s | 20 W/m² | - |
| 1777979568 | 18.89° C | 94% | 1016.5 hPa | 0 mm | 0 m/s | 16 W/m² | - |
| 1777979264 | 18.89° C | 94% | 1016.5 hPa | 0 mm | 0 m/s | 12 W/m² | - |
| 1777978963 | 18.89° C | 94% | 1016.3 hPa | 0 mm | 0 m/s | 9 W/m² | - |
| 1777978658 | 18.89° C | 94% | 1016.4 hPa | 0 mm | 0 m/s | 6 W/m² | - |
| 1777978354 | 18.89° C | 94% | 1016.5 hPa | 0 mm | 0 m/s | 4 W/m² | - |
| 1777978051 | 18.89° C | 94% | 1016.5 hPa | 0 mm | 0.45 m/s, 53° | 2 W/m² | - |
| 1777977748 | 18.89° C | 94% | 1016.3 hPa | 0 mm | 0 m/s | 1 W/m² | - |
| 1777977445 | 18.89° C | 94% | 1016.2 hPa | 0 mm | 0.45 m/s, 51° | 0 W/m² | - |
* Rain latest hour (hover to see other rain measurements)
** Current wind speed in m/s (hover to see current wind gust speed)